FW7924 Weather Reports


time (UTC)temp
C
wind
direction
speed
KPH
gust
KPH
rain 1hr
cm
rain 24hr
cm
rain mn
cm
humidity
%
barometer
mb
20260506173911 15 142 1.6 3.2 0.00 0.08 0.08 92 1009.6
20260506173408 15 137 1.6 3.2 0.18 0.08 0.08 91 1009.4
20260506172900 15 134 0.0 1.6 0.18 0.08 0.08 91 1009.6
20260506172356 15 136 0.0 1.6 0.13 0.05 0.05 89 1009.7
20260506171853 15 137 1.6 1.6 0.18 0.03 0.03 88 1010.0
20260506171350 16 143 3.2 4.8 0.18 0.03 0.03 87 1010.4
20260506170848 16 138 0.0 1.6 0.00 0.00 0.00 86 1010.4
20260506170344 16 138 1.6 1.6 0.00 0.00 0.00 85 1010.5
20260506165843 16 134 1.6 3.2 0.00 0.00 0.00 83 1010.7
20260506165340 17 138 1.6 1.6 0.00 0.00 0.00 82 1010.6
20260506164836 17 144 1.6 3.2 0.00 0.00 0.00 81 1010.6
20260506164333 17 134 0.0 1.6 0.00 0.00 0.00 81 1010.8
20260506163831 17 145 1.6 3.2 0.00 0.00 0.00 80 1010.8
20260506163325 17 135 0.0 1.6 0.00 0.00 0.00 79 1010.6
20260506162822 17 145 1.6 3.2 0.00 0.00 0.00 78 1010.6
20260506162320 18 144 0.0 3.2 0.00 0.00 0.00 77 1010.6
20260506161817 18 143 0.0 3.2 0.00 0.00 0.00 77 1010.8
20260506161314 18 145 1.6 4.8 0.00 0.00 0.00 78 1010.7
20260506160812 18 133 3.2 3.2 0.00 0.00 0.00 77 1010.7
20260506160308 18 141 1.6 4.8 0.00 0.00 0.00 77 1010.5
20260506155807 18 163 4.8 4.8 0.00 0.00 0.00 76 1010.9
20260506155305 18 139 1.6 3.2 0.00 0.00 0.00 76 1011.1
20260506153415 18 142 1.6 4.8 0.00 0.00 0.00 74 1011.0
20260506152913 18 205 9.7 14.5 0.00 0.00 0.00 74 1011.1
20260506152410 19 276 3.2 4.8 0.00 0.00 0.00 74 1011.1
20260506151908 18 153 1.6 3.2 0.00 0.00 0.00 74 1011.2
20260506151405 18 147 0.0 4.8 0.00 0.00 0.00 75 1011.0
20260506150902 18 140 1.6 3.2 0.00 0.00 0.00 75 1011.1
20260506150358 18 143 3.2 4.8 0.00 0.00 0.00 75 1011.2
20260506145855 18 208 4.8 11.3 0.00 0.00 0.00 74 1010.8
20260506145351 18 184 8.0 12.9 0.00 0.00 0.00 74 1011.0
20260506144849 18 141 0.0 4.8 0.00 0.00 0.00 75 1011.0
20260506144345 18 166 3.2 3.2 0.00 0.00 0.00 74 1011.2
20260506143844 18 140 1.6 3.2 0.00 0.00 0.00 74 1011.0
20260506143341 18 142 3.2 3.2 0.00 0.00 0.00 75 1011.1
20260506142839 18 237 4.8 11.3 0.00 0.00 0.00 75 1011.3
20260506142337 18 144 4.8 8.0 0.00 0.00 0.00 75 1011.4
20260506141835 18 199 3.2 11.3 0.00 0.00 0.00 75 1011.6
20260506141333 18 192 6.4 8.0 0.00 0.00 0.00 75 1011.3
20260506140830 18 203 9.7 16.1 0.00 0.00 0.00 75 1011.2
20260506140327 18 169 1.6 3.2 0.00 0.00 0.00 76 1011.1
20260506135824 18 140 4.8 11.3 0.00 0.00 0.00 75 1011.1
20260506135320 18 140 0.0 3.2 0.00 0.00 0.00 76 1011.0
20260506134817 18 160 1.6 3.2 0.00 0.00 0.00 77 1011.1
20260506134313 18 151 3.2 3.2 0.00 0.00 0.00 77 1011.3
20260506133811 18 163 4.8 4.8 0.00 0.00 0.00 76 1011.5
20260506133307 18 165 3.2 4.8 0.00 0.00 0.00 77 1011.1
20260506132804 18 151 1.6 3.2 0.00 0.00 0.00 78 1011.1
20260506132301 17 155 3.2 8.0 0.00 0.00 0.00 78 1011.3
20260506131759 17 158 1.6 11.3 0.00 0.00 0.00 77 1011.2
20260506131255 18 140 1.6 1.6 0.00 0.00 0.00 77 1011.2
20260506130752 18 130 4.8 4.8 0.00 0.00 0.00 77 1011.2
20260506130249 17 195 3.2 4.8 0.00 0.00 0.00 79 1011.1
20260506125747 17 152 3.2 3.2 0.00 0.00 0.00 79 1011.4
20260506125244 17 154 1.6 4.8 0.00 0.00 0.00 79 1011.1
20260506124743 17 176 1.6 4.8 0.00 0.00 0.00 79 1011.3
20260506124240 17 160 4.8 8.0 0.00 0.00 0.00 80 1011.3
20260506123737 17 151 1.6 9.7 0.00 0.00 0.00 80 1011.5
20260506123236 16 135 1.6 3.2 0.00 0.00 0.00 81 1011.7
20260506122732 16 147 0.0 1.6 0.00 0.00 0.00 82 1011.5
20260506122230 16 137 1.6 3.2 0.00 0.00 0.00 82 1011.7
20260506121728 16 150 0.0 1.6 0.00 0.00 0.00 81 1011.8
20260506121224 16 146 3.2 3.2 0.00 0.00 0.00 82 1011.8
20260506120722 16 141 1.6 1.6 0.00 0.00 0.00 82 1011.6
20260506120219 16 148 1.6 3.2 0.00 0.00 0.00 83 1011.8
20260506115717 16 129 4.8 4.8 0.00 0.00 0.00 83 1011.6
20260506115215 15 139 1.6 4.8 0.00 0.00 0.00 84 1011.6
20260506114712 15 136 0.0 1.6 0.00 0.00 0.00 84 1011.5
20260506114210 15 135 0.0 0.0 0.00 0.00 0.00 85 1011.7
20260506113708 15 130 0.0 0.0 0.00 0.00 0.00 86 1011.4
20260506113205 15 135 0.0 1.6 0.00 0.00 0.00 86 1011.6
20260506112701 15 134 1.6 3.2 0.00 0.00 0.00 86 1011.8
20260506112159 15 126 1.6 3.2 0.00 0.00 0.00 86 1011.7
20260506111656 15 134 0.0 1.6 0.00 0.00 0.00 86 1011.6
20260506111154 15 135 1.6 1.6 0.00 0.00 0.00 86 1011.7
20260506110651 15 130 3.2 3.2 0.00 0.00 0.00 87 1011.6
20260506110149 14 136 1.6 3.2 0.00 0.00 0.00 87 1011.7
20260506105645 14 138 0.0 0.0 0.00 0.00 0.00 88 1012.2
20260506105142 13 134 0.0 0.0 0.00 0.00 0.00 89 1012.0
20260506104640 13 134 0.0 0.0 0.00 0.00 0.00 89 1011.8
20260506104137 13 134 0.0 0.0 0.00 0.00 0.00 90 1011.8
20260506103634 13 131 0.0 0.0 0.00 0.00 0.00 91 1011.7
20260506103131 13 131 0.0 0.0 0.00 0.00 0.00 91 1011.7
20260506102630 13 130 0.0 0.0 0.00 0.00 0.00 92 1011.6
20260506102126 12 134 0.0 0.0 0.00 0.00 0.00 93 1011.7
20260506101623 12 130 0.0 0.0 0.00 0.00 0.00 93 1011.7
20260506101120 12 131 0.0 0.0 0.00 0.00 0.00 93 1011.5
20260506100619 12 128 0.0 0.0 0.00 0.00 0.00 93 1011.5
20260506100116 12 127 0.0 0.0 0.00 0.00 0.00 93 1011.5
20260506095615 12 121 0.0 3.2 0.00 0.00 0.00 93 1011.6
20260506095111 12 128 0.0 1.6 0.00 0.00 0.00 93 1011.6
20260506094609 12 120 1.6 3.2 0.00 0.00 0.00 93 1011.6
20260506094106 12 124 0.0 4.8 0.00 0.00 0.00 93 1011.4
20260506093604 12 131 1.6 1.6 0.00 0.00 0.00 93 1011.6
20260506093101 12 151 1.6 3.2 0.00 0.00 0.00 92 1011.4
20260506092559 12 119 0.0 1.6 0.00 0.00 0.00 93 1011.3
20260506092056 12 119 1.6 1.6 0.00 0.00 0.00 93 1011.6
20260506091554 12 118 1.6 3.2 0.00 0.00 0.00 92 1011.5
20260506091051 12 120 1.6 1.6 0.00 0.00 0.00 92 1011.7
20260506090549 12 122 0.0 1.6 0.00 0.00 0.00 92 1011.6
20260506090045 12 115 0.0 1.6 0.00 0.00 0.00 92 1011.7
20260506085542 12 126 0.0 1.6 0.00 0.00 0.00 92 1011.6
20260506085038 12 126 0.0 0.0 0.00 0.00 0.00 92 1011.8
20260506084536 12 126 0.0 0.0 0.00 0.00 0.00 91 1011.8
20260506084031 12 126 0.0 1.6 0.00 0.00 0.00 91 1011.9
20260506083529 12 126 0.0 0.0 0.00 0.00 0.00 91 1011.9
20260506083026 12 127 0.0 0.0 0.00 0.00 0.00 91 1011.7
20260506082523 12 121 0.0 0.0 0.00 0.00 0.00 91 1011.8
20260506082018 12 131 0.0 0.0 0.00 0.00 0.00 91 1011.9
20260506081517 12 130 0.0 0.0 0.00 0.00 0.00 91 1012.0
20260506081014 12 130 0.0 0.0 0.00 0.00 0.00 91 1011.7
20260506080511 12 131 0.0 0.0 0.00 0.00 0.00 90 1011.7
20260506073455 12 130 0.0 1.6 0.00 0.00 0.00 89 1011.8
20260506072952 13 130 0.0 0.0 0.00 0.00 0.00 89 1011.8
20260506072449 13 130 0.0 0.0 0.00 0.00 0.00 88 1011.9
20260506071947 13 130 0.0 0.0 0.00 0.00 0.00 88 1011.9
20260506071445 13 130 0.0 0.0 0.00 0.00 0.00 87 1011.9
20260506070941 13 129 1.6 1.6 0.00 0.00 0.00 86 1011.8
20260506070438 13 130 0.0 0.0 0.00 0.00 0.00 86 1012.0
20260506062416 14 124 0.0 1.6 0.00 0.00 0.00 84 1011.6
20260506061912 14 126 0.0 0.0 0.00 0.00 0.00 83 1011.8
20260506061408 14 126 0.0 0.0 0.00 0.00 0.00 83 1011.6
20260506060906 15 126 0.0 0.0 0.00 0.00 0.00 82 1011.7
20260506060404 15 126 0.0 1.6 0.00 0.00 0.00 81 1011.9
20260506051336 16 157 3.2 3.2 0.00 0.00 0.00 77 1012.0
20260506050834 16 160 3.2 4.8 0.00 0.00 0.00 77 1012.1
20260506050331 16 137 0.0 3.2 0.00 0.00 0.00 77 1012.2
20260506044821 16 135 0.0 1.6 0.00 0.00 0.00 76 1012.4
20260506044319 16 162 1.6 3.2 0.00 0.00 0.00 76 1012.2
20260506043816 16 235 6.4 9.7 0.00 0.00 0.00 75 1012.3
20260506043313 16 143 1.6 4.8 0.00 0.00 0.00 74 1012.1
20260506042812 16 141 1.6 3.2 0.00 0.00 0.00 75 1012.4
20260506042311 16 165 1.6 3.2 0.00 0.00 0.00 75 1012.3
20260506041809 16 194 4.8 8.0 0.00 0.00 0.00 74 1012.2
20260506041305 16 147 1.6 1.6 0.00 0.00 0.00 74 1012.3
20260506040802 16 140 0.0 0.0 0.00 0.00 0.00 74 1012.3
20260506040259 16 140 1.6 1.6 0.00 0.00 0.00 73 1012.2
20260506035756 16 143 0.0 3.2 0.00 0.00 0.00 73 1012.2
20260506035253 16 141 0.0 1.6 0.00 0.00 0.00 73 1012.5
20260506034750 17 148 0.0 9.7 0.00 0.00 0.00 72 1012.4
20260506034248 17 148 0.0 4.8 0.00 0.00 0.00 71 1012.3
20260506033744 17 154 3.2 3.2 0.00 0.00 0.00 70 1012.4
20260506033241 17 139 1.6 4.8 0.00 0.00 0.00 69 1012.3
20260506032738 17 156 4.8 8.0 0.00 0.00 0.00 69 1012.3
20260506032235 17 139 3.2 4.8 0.00 0.00 0.00 69 1012.3
20260506031732 17 152 3.2 3.2 0.00 0.00 0.00 70 1012.1
20260506031230 17 131 1.6 3.2 0.00 0.00 0.00 70 1012.2
20260506030728 17 84 0.0 1.6 0.00 0.00 0.00 71 1012.2
20260506030225 17 147 1.6 4.8 0.00 0.00 0.00 71 1012.1
20260506025721 17 147 0.0 1.6 0.00 0.00 0.00 71 1012.1
20260506025218 17 137 0.0 9.7 0.00 0.00 0.00 72 1012.0
20260506024715 16 134 0.0 0.0 0.00 0.00 0.00 72 1012.0
20260506024211 16 140 1.6 1.6 0.00 0.00 0.00 72 1012.2
20260506023708 16 136 0.0 0.0 0.00 0.00 0.00 72 1011.9
20260506023205 16 140 0.0 1.6 0.00 0.00 0.00 72 1012.3
20260506022702 16 129 0.0 0.0 0.00 0.00 0.00 72 1012.3
20260506022159 16 162 3.2 3.2 0.00 0.00 0.00 74 1012.3
20260506021657 16 126 0.0 0.0 0.00 0.00 0.00 73 1012.2
20260506021154 17 122 1.6 1.6 0.00 0.00 0.00 71 1012.0
20260506020651 17 143 0.0 0.0 0.00 0.00 0.00 71 1012.1
20260506020149 16 141 0.0 1.6 0.00 0.00 0.00 71 1012.2
20260506015646 17 142 1.6 1.6 0.00 0.00 0.00 70 1012.1
20260506015143 17 156 1.6 3.2 0.00 0.00 0.00 70 1011.9
20260506014641 17 128 0.0 1.6 0.00 0.00 0.00 69 1012.0
20260506014136 17 140 1.6 1.6 0.00 0.00 0.00 69 1011.9
20260506013634 17 135 0.0 0.0 0.00 0.00 0.00 69 1011.8
20260506013131 17 133 0.0 0.0 0.00 0.00 0.00 68 1011.7
20260506012627 17 139 0.0 1.6 0.00 0.00 0.00 67 1011.7
20260506012123 17 130 0.0 1.6 0.00 0.00 0.00 68 1011.5
20260506011616 17 130 1.6 1.6 0.00 0.00 0.00 68 1011.7
20260506011111 17 134 0.0 1.6 0.00 0.00 0.00 68 1011.6
20260506010606 17 144 1.6 3.2 0.00 0.00 0.00 67 1011.4
20260506005559 18 144 0.0 0.0 0.00 0.00 0.00 66 1011.5
20260506005055 18 137 0.0 1.6 0.00 0.00 0.00 66 1011.3
20260506004552 18 130 1.6 3.2 0.00 0.00 0.00 65 1011.1
20260506004049 18 140 1.6 3.2 0.00 0.00 0.00 65 1011.2
20260506003545 18 131 1.6 1.6 0.00 0.00 0.00 65 1011.0
20260506003042 18 140 0.0 0.0 0.00 0.00 0.00 64 1010.9
20260506002537 18 146 1.6 4.8 0.00 0.00 0.00 64 1010.9
20260506002034 18 137 0.0 3.2 0.00 0.00 0.00 63 1010.7
20260506001530 18 141 0.0 1.6 0.00 0.00 0.00 64 1010.6
20260506001027 19 141 0.0 3.2 0.00 0.00 0.00 64 1010.5
20260506000525 19 141 1.6 3.2 0.00 0.00 0.00 63 1010.7
20260506000022 19 140 0.0 3.2 0.00 0.00 0.00 63 1010.4
20260505235520 20 135 1.6 3.2 0.00 0.00 0.00 62 1010.5
20260505235016 20 148 1.6 3.2 0.00 0.00 0.00 63 1010.1
20260505234514 20 148 1.6 3.2 0.00 0.00 0.00 62 1010.3
20260505234010 20 140 1.6 4.8 0.00 0.00 0.00 62 1010.4
20260505233508 20 247 4.8 8.0 0.00 0.00 0.00 62 1010.1
20260505233005 20 134 1.6 3.2 0.00 0.00 0.00 61 1010.3
20260505232503 20 140 0.0 9.7 0.00 0.00 0.00 62 1009.9
20260505232000 20 140 1.6 3.2 0.00 0.00 0.00 62 1010.0
20260505231457 20 140 0.0 1.6 0.00 0.00 0.00 61 1010.1
20260505230955 20 141 1.6 3.2 0.00 0.00 0.00 61 1009.8
20260505230453 20 139 1.6 4.8 0.00 0.00 0.00 60 1010.0
20260505225949 21 151 3.2 3.2 0.00 0.00 0.00 60 1010.0
20260505225446 21 188 4.8 8.0 0.00 0.00 0.00 60 1009.9
20260505224942 21 145 3.2 9.7 0.00 0.00 0.00 60 1009.6
20260505224439 21 151 3.2 8.0 0.00 0.00 0.00 59 1009.6
20260505223936 21 179 4.8 9.7 0.00 0.00 0.00 58 1009.7
20260505223433 21 185 3.2 8.0 0.00 0.00 0.00 59 1009.5
20260505222929 21 156 6.4 8.0 0.00 0.00 0.00 58 1009.4
20260505222426 21 148 1.6 4.8 0.00 0.00 0.00 58 1009.7
20260505221922 21 186 3.2 11.3 0.00 0.00 0.00 58 1009.9
20260505221419 21 180 4.8 9.7 0.00 0.00 0.00 58 1009.5
20260505220916 21 171 4.8 4.8 0.00 0.00 0.00 58 1009.8
20260505220413 22 150 4.8 9.7 0.00 0.00 0.00 57 1009.8
20260505215911 22 162 3.2 4.8 0.00 0.00 0.00 56 1009.6
20260505215409 22 135 3.2 8.0 0.00 0.00 0.00 56 1009.7
20260505214906 22 174 3.2 4.8 0.00 0.00 0.00 55 1009.9
20260505214404 23 141 1.6 9.7 0.00 0.00 0.00 56 1009.6
20260505213901 23 161 4.8 9.7 0.00 0.00 0.00 55 1009.5
20260505213359 23 166 1.6 4.8 0.00 0.00 0.00 54 1009.4
20260505212854 23 196 6.4 12.9 0.00 0.00 0.00 53 1009.4
20260505212352 23 151 4.8 8.0 0.00 0.00 0.00 53 1009.4
20260505211848 23 155 3.2 3.2 0.00 0.00 0.00 53 1009.4
20260505211346 23 141 1.6 4.8 0.00 0.00 0.00 53 1009.5
20260505210842 23 201 3.2 8.0 0.00 0.00 0.00 53 1009.2
20260505210339 23 202 3.2 4.8 0.00 0.00 0.00 54 1009.3
20260505205835 23 158 3.2 3.2 0.00 0.00 0.00 54 1009.4
20260505205334 23 129 1.6 4.8 0.00 0.00 0.00 53 1009.4
20260505204830 23 146 3.2 4.8 0.00 0.00 0.00 55 1009.3
20260505204328 24 221 4.8 8.0 0.00 0.00 0.00 52 1009.4
20260505203826 24 138 1.6 8.0 0.00 0.00 0.00 53 1009.5
20260505203322 24 137 4.8 8.0 0.00 0.00 0.00 51 1009.2
20260505202818 25 148 3.2 3.2 0.00 0.00 0.00 50 1009.2
20260505202314 24 146 1.6 8.0 0.00 0.00 0.00 51 1009.3
20260505201811 24 152 4.8 12.9 0.00 0.00 0.00 51 1009.4
20260505201309 24 153 3.2 9.7 0.00 0.00 0.00 51 1009.4
20260505200807 24 157 4.8 4.8 0.00 0.00 0.00 51 1009.4
20260505200304 24 140 6.4 12.9 0.00 0.00 0.00 50 1009.7
20260505195758 25 132 6.4 16.1 0.00 0.00 0.00 49 1009.6
20260505195257 25 166 4.8 8.0 0.00 0.00 0.00 49 1009.3
20260505194753 25 149 6.4 8.0 0.00 0.00 0.00 49 1009.5
20260505194250 25 144 1.6 4.8 0.00 0.00 0.00 48 1009.7
20260505193746 25 141 6.4 9.7 0.00 0.00 0.00 50 1009.7
20260505193244 26 160 4.8 9.7 0.00 0.00 0.00 49 1009.7
20260505192742 26 139 1.6 12.9 0.00 0.00 0.00 48 1009.6
20260505192239 26 133 0.0 14.5 0.00 0.00 0.00 49 1009.6
20260505191737 26 134 1.6 12.9 0.00 0.00 0.00 47 1009.5
20260505191235 26 162 3.2 9.7 0.00 0.00 0.00 51 1009.8
20260505190731 25 203 6.4 11.3 0.00 0.00 0.00 48 1009.8
20260505190231 26 142 4.8 11.3 0.00 0.00 0.00 48 1009.9
20260505185728 26 149 3.2 4.8 0.00 0.00 0.00 47 1009.9
20260505185225 26 140 3.2 9.7 0.00 0.00 0.00 47 1009.7
20260505184720 26 157 1.6 8.0 0.00 0.00 0.00 48 1010.1
20260505184218 26 142 3.2 4.8 0.00 0.00 0.00 47 1010.0
20260505183715 26 139 4.8 11.3 0.00 0.00 0.00 47 1010.1
20260505183212 26 122 9.7 12.9 0.00 0.00 0.00 47 1009.9
20260505182708 26 194 4.8 4.8 0.00 0.00 0.00 48 1009.9
20260505182206 26 144 3.2 9.7 0.00 0.00 0.00 48 1010.0
20260505181702 26 175 3.2 16.1 0.00 0.00 0.00 49 1010.0
20260505181200 26 162 3.2 9.7 0.00 0.00 0.00 47 1010.0
20260505180655 26 168 4.8 9.7 0.00 0.00 0.00 47 1010.3
20260505180153 26 160 4.8 8.0 0.00 0.00 0.00 47 1010.0
20260505175649 25 192 1.6 8.0 0.00 0.00 0.00 51 1009.9
20260505175145 25 150 4.8 4.8 0.00 0.00 0.00 51 1010.1
20260505174642 26 152 3.2 9.7 0.00 0.00 0.00 45 1010.3
20260505174138 26 151 3.2 12.9 0.00 0.00 0.00 47 1009.8